Location: Newark
(40.9833°N, 0.0333°W)
Time: 04:43:12
(UTC+00:00)

NANOSAT C BR1 - Visible Passes

Search period start: 27 May 2019 00:00
Search period end: 06 June 2019 00:00
Orbit: 589 x 608 km, 97.9° (Epoch: 26 May)

Date Brightness Start Highest point End Pass type
(mag) Time Alt. Az. Time Alt. Az. Time Alt. Az.
27 May ? 00:38:52 10° NNE 00:42:09 54° NNE 00:42:09 54° NNE visible
28 May ? 00:49:29 10° N 00:52:55 57° N 00:52:55 57° N visible
28 May ? 23:26:45 10° ENE 23:26:57 10° ENE 23:26:57 10° ENE visible
29 May ? 01:00:08 10° N 01:03:40 51° NW 01:03:40 51° NW visible
29 May ? 23:36:26 10° NE 23:37:43 14° ENE 23:37:43 14° ENE visible
30 May ? 01:10:51 10° N 01:14:26 41° WNW 01:14:26 41° WNW visible
30 May ? 23:46:31 10° NE 23:48:29 18° ENE 23:48:29 18° ENE visible
31 May ? 01:21:37 10° N 01:25:12 32° WNW 01:25:12 32° WNW visible
31 May ? 23:56:47 10° NE 23:59:14 23° ENE 23:59:14 23° ENE visible
01 Jun ? 01:32:26 10° NNW 01:35:52 25° WNW 01:35:57 25° WNW visible
02 Jun ? 00:07:08 10° NNE 00:09:59 30° ENE 00:09:59 30° ENE visible
02 Jun ? 01:43:21 10° NNW 01:46:23 20° WNW 01:46:42 20° WNW visible
03 Jun ? 00:17:34 10° NNE 00:20:44 39° ENE 00:20:44 39° ENE visible
03 Jun ? 01:54:23 10° NNW 01:56:53 16° WNW 01:57:27 15° WNW visible
04 Jun ? 00:28:04 10° NNE 00:31:29 51° ENE 00:31:29 51° ENE visible
04 Jun ? 02:05:41 10° NW 02:07:22 12° WNW 02:08:12 12° WNW visible
05 Jun ? 00:38:37 10° NNE 00:42:14 64° NNE 00:42:14 64° NNE visible
